Weather in Bari

Italy     41˚07′33″N   16˚52′07″E
temp.,
°C
wind,
m/s
gust,
m/s
humid.,
%
clouds,
%
prec.,
mm/h
press.,
hPa
HPBL,
m
2 december, wed
wed201:00+14˚se697650 0.0 1013611
04:00+14˚sse6107694 0.1 1012503
07:00+14˚s8127479 0.1 1012408
10:00+16˚s7116561 0.0 1012513
13:00+17˚s586278 0.0 1011333
16:00+16˚se61065100 0.0 1009594
19:00+16˚se71373100 0.0 1009859
22:00+16˚sse81576100 0.0 1009813
3 december, thu
thu301:00+16˚sse91673100 0.0 1008777
04:00+16˚sse71477100 0.0 1006857
07:00+16˚sse61275100 0.0 1006516
10:00+17˚sse6967100 0.0 1006368
13:00+17˚sse81367100 0.2 1005667
16:00+14˚nw4679100 1.5 1004513
19:00+13˚nw4483100 3.1 1004343
22:00+12˚w4584100 1.3 1004439
4 december, fri
fri401:00+12˚w6884100 1.4 1004565
04:00+13˚wnw788388 0.1 1004564
07:00+13˚wnw566990 0.3 1005450
10:00+13˚wnw556746 0.0 1006412
13:00+14˚wnw235637 0.0 1005471
16:00+15˚sse345427 0.0 1005479
19:00+14˚s696014 0.0 1006617
22:00+14˚s6106173 0.0 1007693
5 december, sat
sat501:00+14˚sse597086 0.0 1007726
04:00+14˚sse6116994 0.0 1006614
07:00+14˚sse8136375 0.0 1006654
10:00+16˚sse8146871 0.0 10061034
13:00+17˚sse10166778 0.0 10051007
16:00+17˚sse1118715 0.0 10041017
19:00+17˚sse13197129 0.0 10031017
22:00+17˚sse12197596 0.0 10021170
6 december, sun
sun601:00+17˚sse9167298 0.1 1001880
04:00+17˚ssw7136899 0.3 1000674
07:00+13˚w6871100 4.5 1000573
10:00+15˚sw575669 0.1 10021035
13:00+15˚w565383 0.1 10021315
16:00+15˚wsw455235 0.0 10031455
19:00+14˚ssw345332 0.0 1005563
22:00+14˚wsw335472 0.0 1007400